Location: Congrier
(47.8099°N, 1.1170°W)
Time: 00:46:55
(UTC+00:00)

Cosmos 1606 Rocket - Pass Details

Date: 28 January 2023
Orbit: 602 x 630 km, 82.5° (Epoch: 21 March)

Event Time Altitude Azimuth Distance (km) Brightness Sun altitude
Rises 18:27:39 0° 357° (N) 2,870 6.9 -15.0°
Reaches altitude 10° 18:30:02 10° 7° (N) 1,960 6.0 -15.4°
Maximum altitude 18:34:00 34° 73° (ENE) 996 4.1 -16.1°
Enters shadow 18:36:19 20° 126° (SE) 1,398 5.0 -16.4°
